User: anonymous   Login
Location: Chandrammap?lem
(16.9200°N, 81.0051°E)
Time: 05:28:07
(UTC+00:00)
Language:

Atlas Centaur 2 - Orbit

View from above orbital plane
View from above orbital plane
View from above satellite
View from above satellite

Ground track
Ground track

The orbit data is extracted from the following two-line orbital elements,

1   694U 63047A   24205.54611291  .00006229  00000-0  77335-3 0  9998
2   694  30.3585 267.1028 0564288 258.1731  95.5069 14.07943774 47305
Epoch (UTC): 23 July 2024 13:06:24
Eccentricity: 0.0564288
inclination: 30.3585°
perigee height: 457 km
apogee height: 1275 km
right ascension of ascending node: 267.1028°
argument of perigee: 258.1731°
revolutions per day: 14.07943774
mean anomaly at epoch: 95.5069°
orbit number at epoch: 4730

The dashed part of the orbit path shows where the satellite is in the earth's shadow,  

DLR